St. Joseph, KS

4:25 PM CDT on September 16, 2019 (GMT -0500)
Rosecrans Memorial

Weather History for KSTJ - July, 2019

Change the Weather History Date:

Wednesday, July 31, 2019

  Actual Average Record
Temperature  
Mean Temperature 73 °F 77 °F  
Max Temperature 78 °F 87 °F 104 °F (1955)
Min Temperature 67 °F 67 °F 44 °F (1971)
Degree Days  
Heating Degree Days 0 0  
Month to date heating degree days 0 0  
Since 1 June heating degree days 1 9  
Since 1 July heating degree days 0 1  
Cooling Degree Days 8 12  
Month to date cooling degree days 427 374  
Year to date cooling degree days 821 754  
Since 1 June cooling degree days 720 641  
Growing Degree Days 22 (Base 50)    
Moisture  
Dew Point 64 °F    
Average Humidity 76    
Maximum Humidity 84    
Minimum Humidity 68    
Precipitation  
Precipitation 0.02 in 0.18 in 1.74 in (1968)
Month to date precipitation 0.81 5.19  
Year to date precipitation 22.08 22.32  
Sea Level Pressure  
Sea Level Pressure 30.10 in    
Wind  
Wind Speed 8 mph (ESE)    
Max Wind Speed 18 mph    
Max Gust Speed 28 mph    
Visibility 8 miles    
Events Rain , Thunderstorm    
T = Trace of Precipitation, MM = Missing Value Source: NWS Daily Summary

Daily Weather History Graph

Daily Weather History Graph

Search for Another Location

Airport or City:

Astronomy

Jul. 31, 2019 Rise Set
Actual Time 6:17 AM CDT 8:34 PM CDT
Civil Twilight 5:47 AM CDT 9:04 PM CDT
Nautical Twilight 5:09 AM CDT 9:41 PM CDT
Astronomical Twilight 4:28 AM CDT 10:22 PM CDT
Moon 5:31 AM CDT (7/31) 8:34 PM CDT (7/31)
Length of Visible Light 15h 17m
Length of Day
14h 16m
Waning Crescent, 0% of the Moon is Illuminated
Jul 31
Waning Crescent
Jul 31
New
Aug 7
First Quarter
Aug 15
Full
Aug 23
Last Quarter

Hourly Weather History & Observations

Time (CDT) Temp. Dew Point Humidity Pressure Visibility Wind Dir Wind Speed Gust Speed Precip Events Conditions
12:53 AM 72.0 °F 62.1 °F 71% 30.07 in 9.0 mi SE 6.9 mph - 0.00 in   Clear
1:53 AM 71.1 °F 62.1 °F 73% 30.09 in 10.0 mi SE 3.5 mph - N/A   Clear
2:53 AM 70.0 °F 62.1 °F 76% 30.09 in 9.0 mi Calm Calm - N/A   Clear
3:53 AM 69.1 °F 62.1 °F 78% 30.10 in 9.0 mi NW 5.8 mph - N/A   Overcast
4:53 AM 68.0 °F 63.0 °F 84% 30.09 in 8.0 mi NNE 4.6 mph - 0.00 in Rain Light Rain
5:25 AM 68.0 °F 62.1 °F 81% 30.09 in 10.0 mi ESE 10.4 mph - 0.00 in   Overcast
5:53 AM 68.0 °F 62.1 °F 81% 30.10 in 9.0 mi East 6.9 mph - 0.00 in   Mostly Cloudy
6:16 AM 68.0 °F 63.0 °F 84% 30.12 in 8.0 mi South 6.9 mph - 0.00 in Rain , Thunderstorm Light Rain
6:31 AM 66.9 °F 64.0 °F 90% 30.13 in 9.0 mi Calm Calm - 0.00 in   Mostly Cloudy
6:46 AM 68.0 °F 63.0 °F 84% 30.13 in 9.0 mi East 3.5 mph - 0.00 in Thunderstorm Mostly Cloudy
6:53 AM 68.0 °F 63.0 °F 84% 30.10 in 6.0 mi East 10.4 mph - 0.00 in Rain , Thunderstorm Thunderstorms and Rain
7:01 AM 66.9 °F 64.0 °F 90% 30.11 in 1.8 mi ESE 9.2 mph - 0.00 in Rain , Thunderstorm Heavy Thunderstorms and Rain
7:08 AM 66.9 °F 64.0 °F 90% 30.14 in 3.0 mi Variable 5.8 mph - N/A Rain , Thunderstorm Light Thunderstorms and Rain
7:31 AM 68.0 °F 64.0 °F 87% 30.13 in 8.0 mi East 12.7 mph - N/A Thunderstorm Overcast
7:50 AM 68.0 °F 64.4 °F 88% 30.14 in 8.0 mi SE 5.8 mph - N/A   Overcast
7:53 AM 68.0 °F 64.0 °F 87% 30.12 in 8.0 mi SSE 5.8 mph - N/A   Overcast
8:53 AM 68.0 °F 63.0 °F 84% 30.12 in 9.0 mi SSE 4.6 mph - N/A   Overcast
9:53 AM 68.0 °F 63.0 °F 84% 30.13 in 9.0 mi SE 5.8 mph - N/A Thunderstorm Overcast
10:15 AM 69.1 °F 64.0 °F 84% 30.13 in 9.0 mi ESE 5.8 mph - N/A   Mostly Cloudy
10:28 AM 69.1 °F 63.0 °F 81% 30.12 in 9.0 mi South 8.1 mph - N/A Thunderstorm Mostly Cloudy
10:45 AM 69.1 °F 64.0 °F 84% 30.14 in 2.5 mi ESE 4.6 mph - N/A Rain Rain
10:53 AM 69.1 °F 64.0 °F 84% 30.13 in 4.0 mi East 3.5 mph - N/A Rain Light Rain
11:12 AM 69.1 °F 64.0 °F 84% 30.15 in 6.0 mi East 6.9 mph - N/A Rain , Thunderstorm Light Rain
11:27 AM 69.1 °F 64.0 °F 84% 30.14 in 9.0 mi ESE 8.1 mph - N/A   Overcast
11:53 AM 71.1 °F 64.9 °F 81% 30.12 in 9.0 mi SE 10.4 mph - N/A   Mostly Cloudy
12:53 PM 73.9 °F 64.9 °F 73% 30.12 in 9.0 mi ESE 9.2 mph - N/A   Mostly Cloudy
1:53 PM 73.0 °F 66.0 °F 79% 30.11 in 9.0 mi ESE 9.2 mph - N/A   Mostly Cloudy
2:53 PM 75.0 °F 66.0 °F 73% 30.08 in 9.0 mi ESE 13.8 mph - N/A   Clear
3:53 PM 73.9 °F 64.0 °F 71% 30.03 in 9.0 mi SSE 18.4 mph 25.3 mph N/A Thunderstorm Thunderstorm
4:13 PM 75.9 °F 66.9 °F 74% 30.05 in 9.0 mi SE 12.7 mph - 0.02 in Rain , Thunderstorm Light Rain
4:23 PM 75.9 °F 66.0 °F 71% 30.07 in 9.0 mi SE 9.2 mph - 0.02 in   Partly Cloudy
4:53 PM 77.0 °F 66.0 °F 69% 30.05 in 9.0 mi ESE 11.5 mph - 0.02 in   Partly Cloudy
5:53 PM 75.9 °F 64.0 °F 67% 30.08 in 9.0 mi ESE 9.2 mph - N/A   Overcast
6:53 PM 73.9 °F 63.0 °F 68% 30.09 in 9.0 mi ESE 11.5 mph - N/A   Overcast
7:53 PM 73.9 °F 62.1 °F 66% 30.09 in 9.0 mi East 15.0 mph 21.9 mph N/A   Mostly Cloudy
8:53 PM 72.0 °F 63.0 °F 73% 30.05 in 10.0 mi East 10.4 mph - N/A   Partly Cloudy
9:53 PM 71.1 °F 64.9 °F 81% 30.06 in 9.0 mi ESE 8.1 mph - N/A   Overcast
10:53 PM 70.0 °F 64.9 °F 84% 30.06 in 9.0 mi ESE 8.1 mph - N/A   Mostly Cloudy
11:53 PM 69.1 °F 64.9 °F 87% 30.06 in 8.0 mi East 4.6 mph - N/A   Clear